Tracking 22993 objects as of 12-May-2021
HD Live streaming from Space Station
objects crossing your sky now

INTELSAT 4-F1

Track INTELSAT 4-F1 now!
INTELSAT 4-F1 is classified as:


NORAD ID: 7815
Int'l Code: 1975-042A
Perigee: 36,040.1 km
Apogee: 36,117.1 km
Inclination: 12.1 °
Period: 1,450.7 minutes
Semi major axis: 42449 km
RCS: 12.6 m2 (large)
Launch date: May 22, 1975
Source: International Telecommunications Satellite Organization (ITSO)
Launch site: AIR FORCE EASTERN TEST RANGE (AFETR)
aabbcc
Your satellite tracking list
Your tracking list is empty




NASA's NSSDC Master Catalog

Two Line Element Set (TLE):
1 07815U 75042A   21130.35069836 -.00000268  00000-0  00000-0 0  9993
2 07815  12.0715 321.9117 0009076 204.3687 155.4959  0.99264107103454
Source of the keplerian elements: AFSPC